STARLINK-2234 (48580 NORAD) Tracking and Keplerian Element Data

This shows tracking and keplerian element data for the satellite.

Feedback or suggestion? Click here.




ElementValue
Catalog48580
NameSTARLINK-2234
Epoch Orbit1202
Epoch Day211.25001157
Epoch Year2021
RAAN121.4746
Inclination53.0545
Eccentricity0.0001646
Argument of Perigee44.3179
Mean Anonmoly280.2067
Mean Motion15.42120759
Decay Rate0.00050936
L11 48580U 21041AD 21211.25001157 .00050936 00000-0 11736-2 0 9994
L22 48580 53.0545 121.4746 0001646 44.3179 280.2067 15.42120759 12025

Live tracking and technical data element details for STARLINK-2234 (NORAD 48580). STARLINK-2234 can be tracked NOW for your location showing map with azimuth and elevation plus other details from your city location.

Track the satellite on the map from your city or location and see movement details for azimuth, elevation, latitude, longitude, range, height, and movement on the map or in text.







IsCatalogInMostPopularTable: catalog: 48580, numindb: 17
Update: records affected: 1



GetName: 48580 STARLINK-2234

Hit Count: updated at: Sat, 31 Jul 2021 15:51:53 GMT